Regional Weather Roundup
Issued by NWS Kansas City/Pleasant Hill, MO

Home | Current Version | Previous Version | Text Only | Print | Product List | Glossary On
Versions: 1 2 3 4 5 6 7 8 9 10 11 12 13 14 15 16 17 18 19 20 21 22 23 24 25 26 27 28
000
ASUS43 KEAX 192010
RWREAX

WEATHER ROUNDUP FOR EASTERN KANSAS AND NORTHWEST MISSOURI
NATIONAL WEATHER SERVICE KANSAS CITY/PLEASANT HILL MO
200 PM CST MON FEB 19 2018

KSZ040-057-103>105-MOZ028-029-037-043-192100-
...KANSAS CITY METROPOLITAN AREA...

CITY           SKY/WX    TMP DP  RH WIND       PRES   REMARKS
K.C. INTL      DRIZZLE   33  31  92 NW7       29.77R FOG     WCI  27
K.C. DOWNTOWN  CLOUDY    37  32  82 W13       29.77R WCI  29
LEES SUMMIT    CLOUDY    43  38  82 NW10      29.75R
OLATHE - IXD   CLOUDY    37  33  85 NW13      29.78R WCI  29
OLATHE - OJC   CLOUDY    37  34  89 NW9       29.76R WCI  30
LAWRENCE       CLOUDY    34  31  88 NW10      29.80R WCI  26

$$

MOZ001>008-011>017-020>025-030>033-038>040-044>046-053-054-192100-
...NORTHERN AND CENTRAL MISSOURI...

CITY           SKY/WX    TMP DP  RH WIND       PRES   REMARKS
ST. JOSEPH     CLOUDY    32  32 100 NW15      29.79S WCI  22
MOSBY            N/A     36  32  87 NW12      29.76R WCI  27
WARRENSBURG    CLOUDY    63  59  88 S18       29.71R
WHITEMAN AFB   LGT RAIN  63  61  94 S16G22    29.67S
CLINTON        LGT RAIN  63  63 100 S15G22    29.73F
SEDALIA        LGT RAIN  63  62  97 S20       29.73F
WARSAW         NOT AVBL
CHILLICOTHE      N/A     46  41  82 NW9       29.72S
KIRKSVILLE     LGT RAIN  64  61  90 S17G28    29.69S

$$

MOZ041-047>049-056>058-063>065-088>090-097-192100-
...EASTERN AND SOUTHERN MISSOURI...

CITY           SKY/WX    TMP DP  RH WIND       PRES   REMARKS
ST. LOUIS INTL RAIN      60  60 100 S10       29.87F FOG
SPIRIT OF STL  LGT RAIN  61  60  97 S7        29.85F
COLUMBIA       LGT RAIN  60  59  96 S20       29.77F FOG
JEFFERSON CITY CLOUDY    62  59  90 SE10      29.78F
ROLLA          CLOUDY    61  59  93 S17G24    29.83F
OSAGE BEACH    CLOUDY    62  59  90 S12G17    29.79F
SPRINGFIELD    CLOUDY    65  60  84 S26G36    29.80S
BRANSON        CLOUDY    68  57  68 S17G28    29.86F
JOPLIN         LGT RAIN  66  63  90 S24G33    29.74F
WEST PLAINS    CLOUDY    65  57  75 S17G33    29.91F

$$

IAZ060-094-KSZ022-034>040-054-083-096-NEZ052-066-093-192100-
...KANSAS...SOUTHEAST NEBRASKA AND IOWA...

CITY           SKY/WX    TMP DP  RH WIND       PRES   REMARKS
TOPEKA         CLOUDY    34  29  82 NW13      29.79F WCI  25
MANHATTAN      CLOUDY    30  23  75 N8        29.83R WCI  22
EMPORIA        CLOUDY    31  27  85 NW14      29.78F WCI  21
CHANUTE        LGT RAIN  42  39  89 N10       29.76S FOG
WICHITA        CLOUDY    32  26  78 N15       29.80R WCI  22
OMAHA          FLURRIES  24  22  91 NW15      29.81S WCI  11
LINCOLN        FLURRIES  22  19  89 N15       29.84F WCI   9
FALLS CITY     CLOUDY    27  25  92 NW15G21   29.79F WCI  15
LAMONI         CLOUDY    35  34  96 NW12      29.72R WCI  27
DES MOINES     CLOUDY    35  34  96 NW13      29.71R FOG     WCI  26

$$





USA.gov is the U.S. government's official web portal to all federal, state and local government web resources and services.